Regional Weather Roundup
Issued by NWS

Home | Current Version | Previous Version | Graphics & Text | Print | Product List | Glossary On
Versions: 1 2 3 4 5 6 7 8 9 10 11 12 13 14 15 16 17 18 19 20 21 22 23 24 25 26 27 28 29 30 31 32 33 34 35 36 37 38 39 40 41 42 43 44 45 46 47 48 49 50
000
ASUS43 KIND 070459
RWRIN

WEATHER ROUNDUP FOR INDIANA
NATIONAL WEATHER SERVICE INDIANAPOLIS IN
1200 AM EST WED DEC 07 2016

NOTE: "FAIR" INDICATES FEW OR NO CLOUDS BELOW 12,000 FEET WITH NO
SIGNIFICANT WEATHER AND/OR OBSTRUCTIONS TO VISIBILITY.

* - STATION DOES NOT REPORT WEATHER SUCH AS PRECIPITATION OR FOG.

+ - STATION NOT QUALITY CONTROLLED BY THE NATIONAL WEATHER SERVICE.
    USE DATA WITH CAUTION...ESPECIALLY DEWPOINT AND RELATIVE
    HUMIDITY OBSERVATIONS.

INZ001>003-010>013-019-020-070600-
NORTHWEST INDIANA

CITY           SKY/WX    TMP DP  RH WIND       PRES   REMARKS
MONTICELLO +   CLEAR     30  20  67 W12G20    30.01R WCI  20

$$

LMZ046-743>745-070600-
SOUTHERN LAKE MICHIGAN

STATION/POSITION TIME  TEMP    WIND        PRES    WAVE
                       AIR SEA DIR/SP/G            HT
                 (UTC) (F)     (DEG/KT/KT) (MB)    (FT)
BURNS HARBOR     0440   32     270/ 24/ 28 1015.2R
MICHIGAN CITY    0430   31     230/ 31/ 35   N/A

$$

INZ004-005-014>016-021>024-070600-
NORTH CENTRAL INDIANA

CITY           SKY/WX    TMP DP  RH WIND       PRES   REMARKS
GOSHEN         PTCLDY    29  21  72 W16       29.93S WCI  17
SOUTH BEND     PTCLDY    29  22  75 W21G30    29.94R WCI  16
WARSAW +       CLEAR     28  21  74 W13G20    29.95R WCI  18

$$

INZ006>009-017-018-025>027-070600-
NORTHEAST INDIANA

CITY           SKY/WX    TMP DP  RH WIND       PRES   REMARKS
ANGOLA *+      MOCLDY    30  25  80 W12       29.90R WCI  21
FORT WAYNE     PTCLDY    31  23  72 W13       29.96R WCI  21
KENDALLVILLE + PTCLDY    29  24  80 W14       29.92R WCI  19

$$

INZ028-029-035-036-043>045-051>053-070600-
WEST CENTRAL INDIANA

CITY           SKY/WX    TMP DP  RH WIND       PRES   REMARKS
CRAWFORDSVL +  CLEAR     28  26  94 W7        30.04R WCI  21
GREENCASTLE +  CLEAR     32  30  93 W3        30.05R
LAFAYETTE      CLEAR     30  24  78 W8G17     30.04R WCI  22
TERRE HAUTE    CLEAR     31  26  82 W5        30.08R WCI  26

$$

INZ030>032-037>040-046>048-054>057-064-065-070600-
CENTRAL INDIANA

CITY           SKY/WX    TMP DP  RH WIND       PRES   REMARKS
GREENWOOD *+   PTCLDY    34  30  85 W8G17     30.05R WCI  27
INDIANAPOLIS   PTCLDY    31  26  82 W9        30.03R WCI  23
-EAGLE CREEK   CLEAR     33  26  75 W10       30.03R WCI  25
KOKOMO +       CLEAR     31  26  82 W15       30.01R WCI  20
SHELBYVILLE    MOCLDY    34  28  79 W9        30.03R WCI  27

$$

INZ033-034-041-042-049-050-058-059-070600-
EAST CENTRAL INDIANA

CITY           SKY/WX    TMP DP  RH WIND       PRES   REMARKS
MUNCIE         CLEAR     32  27  81 W12       29.99R WCI  23

$$

INZ060-061-067>069-081>083-085>088-070600-
SOUTHWEST INDIANA

CITY           SKY/WX    TMP DP  RH WIND       PRES   REMARKS
EVANSVILLE     PTCLDY    37  33  85 W3        30.11R
HUNTINGBURG *+ PTCLDY    34  32  92 NW6       30.09R WCI  29

$$

INZ062-063-066-070>080-084-089>092-070600-
SOUTH CENTRAL AND SOUTHEAST INDIANA

CITY           SKY/WX    TMP DP  RH WIND       PRES   REMARKS
BLOOMINGTON    CLEAR     33  26  75 W6        30.05R WCI  28
MADISON *+     MOCLDY    36  32  87 W5        30.05S
SEYMOUR +      CLEAR     34  30  86 W5        30.06R WCI  30

$$





USA.gov is the U.S. government's official web portal to all federal, state and local government web resources and services.